| time (UTC) | temp C | wind direction | speed KPH | gust KPH | rain 1hr cm | rain 24hr cm | rain mn cm | humidity % | barometer mb |
| 20260508153330 | 14 | 173 | 4.8 | 14.5 | 0.00 | 0.00 | 0.00 | 41 | 1010.1 |
| 20260508151820 | 13 | 233 | 4.8 | 14.5 | 0.00 | 0.00 | 0.00 | 43 | 1010.1 |
| 20260508150321 | 13 | 277 | 4.8 | 17.7 | 0.00 | 0.00 | 0.00 | 42 | 1010.3 |
| 20260508144827 | 13 | 358 | 3.2 | 17.7 | 0.00 | 0.00 | 0.00 | 43 | 1010.3 |
| 20260508143324 | 13 | 333 | 4.8 | 14.5 | 0.00 | 0.00 | 0.00 | 41 | 1010.5 |
| 20260508141833 | 12 | 356 | 4.8 | 16.1 | 0.00 | 0.00 | 0.00 | 43 | 1010.5 |
| 20260508140345 | 12 | 160 | 3.2 | 12.9 | 0.00 | 0.00 | 0.00 | 43 | 1010.6 |
| 20260508134833 | 12 | 265 | 4.8 | 12.9 | 0.00 | 0.00 | 0.00 | 42 | 1010.6 |
| 20260508133348 | 12 | 295 | 4.8 | 9.7 | 0.00 | 0.00 | 0.00 | 43 | 1010.7 |
| 20260508131830 | 12 | 237 | 4.8 | 12.9 | 0.00 | 0.00 | 0.00 | 45 | 1010.7 |
| 20260508130322 | 12 | 271 | 4.8 | 12.9 | 0.00 | 0.00 | 0.00 | 44 | 1010.7 |
| 20260508124826 | 12 | 321 | 1.6 | 4.8 | 0.00 | 0.00 | 0.00 | 46 | 1010.7 |
| 20260508123324 | 11 | 31 | 3.2 | 9.7 | 0.00 | 0.00 | 0.00 | 50 | 1010.7 |
| 20260508121818 | 10 | 232 | 3.2 | 8.0 | 0.00 | 0.00 | 0.00 | 54 | 1010.7 |
| 20260508120332 | 9 | 231 | 4.8 | 9.7 | 0.00 | 0.00 | 0.00 | 56 | 1010.8 |
| 20260508114823 | 8 | 223 | 1.6 | 6.4 | 0.00 | 0.00 | 0.00 | 59 | 1010.8 |
| 20260508113327 | 7 | 162 | 1.6 | 4.8 | 0.00 | 0.00 | 0.00 | 62 | 1010.8 |
| 20260508111820 | 6 | 191 | 1.6 | 3.2 | 0.00 | 0.00 | 0.00 | 67 | 1010.7 |
| 20260508110324 | 6 | 235 | 1.6 | 4.8 | 0.00 | 0.00 | 0.00 | 70 | 1010.7 |
| 20260508104818 | 5 | 146 | 0.0 | 0.0 | 0.00 | 0.00 | 0.00 | 73 | 1010.6 |
| 20260508103323 | 3 | 146 | 0.0 | 0.0 | 0.00 | 0.00 | 0.00 | 77 | 1010.4 |
| 20260508101817 | 3 | 146 | 0.0 | 0.0 | 0.00 | 0.00 | 0.00 | 77 | 1010.2 |
| 20260508100326 | 3 | 146 | 0.0 | 0.0 | 0.00 | 0.00 | 0.00 | 76 | 1009.9 |
| 20260508094822 | 3 | 146 | 0.0 | 0.0 | 0.00 | 0.00 | 0.00 | 77 | 1009.9 |
| 20260508093336 | 2 | 146 | 0.0 | 0.0 | 0.00 | 0.00 | 0.00 | 81 | 1009.9 |
| 20260508091848 | 3 | 146 | 0.0 | 0.0 | 0.00 | 0.00 | 0.00 | 80 | 1009.8 |
| 20260508090333 | 3 | 146 | 0.0 | 0.0 | 0.00 | 0.00 | 0.00 | 79 | 1009.8 |
| 20260508084833 | 2 | 146 | 0.0 | 0.0 | 0.00 | 0.00 | 0.00 | 81 | 1009.6 |
| 20260508083346 | 2 | 146 | 0.0 | 0.0 | 0.00 | 0.00 | 0.00 | 81 | 1009.7 |
| 20260508081818 | 3 | 146 | 0.0 | 0.0 | 0.00 | 0.00 | 0.00 | 78 | 1009.4 |
| 20260508080331 | 3 | 146 | 0.0 | 0.0 | 0.00 | 0.00 | 0.00 | 73 | 1009.4 |
| 20260508074827 | 4 | 146 | 0.0 | 0.0 | 0.00 | 0.03 | 0.00 | 74 | 1008.8 |
| 20260508073331 | 4 | 146 | 0.0 | 0.0 | 0.00 | 0.03 | 0.00 | 75 | 1008.5 |
| 20260508071824 | 4 | 146 | 0.0 | 0.0 | 0.00 | 0.03 | 0.00 | 73 | 1008.5 |
| 20260508070346 | 5 | 146 | 0.0 | 0.0 | 0.00 | 0.03 | 0.00 | 71 | 1008.4 |
| 20260508064838 | 5 | 146 | 0.0 | 0.0 | 0.00 | 0.03 | 0.00 | 71 | 1008.4 |
| 20260508063322 | 5 | 146 | 0.0 | 1.6 | 0.00 | 0.03 | 0.00 | 71 | 1008.4 |
| 20260508061826 | 5 | 146 | 0.0 | 0.0 | 0.00 | 0.03 | 0.00 | 70 | 1008.5 |
| 20260508060346 | 6 | 146 | 0.0 | 1.6 | 0.00 | 0.03 | 0.00 | 69 | 1008.5 |
| 20260508054829 | 5 | 147 | 0.0 | 0.0 | 0.00 | 0.03 | 0.00 | 71 | 1008.6 |
| 20260508053344 | 6 | 146 | 0.0 | 1.6 | 0.00 | 0.03 | 0.00 | 70 | 1008.8 |
| 20260508051819 | 6 | 146 | 0.0 | 0.0 | 0.00 | 0.03 | 0.00 | 68 | 1008.9 |
| 20260508050314 | 6 | 146 | 0.0 | 0.0 | 0.00 | 0.03 | 0.00 | 66 | 1009.0 |
| 20260508044828 | 7 | 146 | 0.0 | 0.0 | 0.00 | 0.05 | 0.00 | 63 | 1009.1 |
| 20260508043344 | 7 | 216 | 0.0 | 1.6 | 0.00 | 0.05 | 0.00 | 61 | 1009.3 |
| 20260508041830 | 7 | 214 | 0.0 | 1.6 | 0.00 | 0.05 | 0.00 | 62 | 1009.3 |
| 20260508040338 | 8 | 222 | 0.0 | 0.0 | 0.00 | 0.05 | 0.00 | 60 | 1009.3 |
| 20260508034821 | 8 | 229 | 0.0 | 1.6 | 0.00 | 0.10 | 0.05 | 61 | 1009.3 |
| 20260508033322 | 8 | 228 | 0.0 | 1.6 | 0.00 | 0.10 | 0.05 | 59 | 1009.3 |
| 20260508031815 | 9 | 296 | 1.6 | 6.4 | 0.00 | 0.10 | 0.05 | 58 | 1009.2 |
| 20260508030327 | 9 | 248 | 1.6 | 8.0 | 0.00 | 0.10 | 0.05 | 57 | 1009.0 |
| 20260508024823 | 9 | 266 | 1.6 | 8.0 | 0.00 | 0.10 | 0.05 | 56 | 1009.1 |
| 20260508023326 | 10 | 226 | 1.6 | 3.2 | 0.00 | 0.10 | 0.05 | 55 | 1009.1 |
| 20260508021820 | 10 | 210 | 3.2 | 8.0 | 0.00 | 0.10 | 0.05 | 55 | 1009.0 |
| 20260508020327 | 10 | 260 | 1.6 | 6.4 | 0.00 | 0.10 | 0.05 | 56 | 1009.0 |
| 20260508014826 | 10 | 237 | 1.6 | 4.8 | 0.00 | 0.10 | 0.05 | 53 | 1009.0 |
| 20260508013343 | 10 | 198 | 3.2 | 4.8 | 0.00 | 0.10 | 0.05 | 52 | 1008.7 |
| 20260508011828 | 11 | 210 | 1.6 | 6.4 | 0.00 | 0.10 | 0.05 | 52 | 1008.5 |
| 20260508010331 | 11 | 229 | 0.0 | 4.8 | 0.00 | 0.10 | 0.05 | 51 | 1008.3 |
| 20260508004843 | 11 | 228 | 1.6 | 6.4 | 0.00 | 0.10 | 0.05 | 48 | 1008.2 |
| 20260508003332 | 12 | 261 | 1.6 | 4.8 | 0.00 | 0.10 | 0.05 | 46 | 1007.9 |
| 20260508001825 | 12 | 263 | 1.6 | 6.4 | 0.00 | 0.10 | 0.05 | 44 | 1007.9 |
| 20260508000317 | 12 | 261 | 1.6 | 8.0 | 0.00 | 0.10 | 0.05 | 43 | 1007.8 |
| 20260507234853 | 13 | 257 | 1.6 | 4.8 | 0.00 | 0.13 | 0.05 | 42 | 1007.6 |
| 20260507233338 | 14 | 349 | 3.2 | 8.0 | 0.00 | 0.13 | 0.05 | 40 | 1007.4 |
| 20260507231843 | 15 | 355 | 3.2 | 11.3 | 0.00 | 0.13 | 0.05 | 37 | 1007.3 |
| 20260507230314 | 15 | 271 | 3.2 | 11.3 | 0.00 | 0.13 | 0.05 | 37 | 1007.1 |
| 20260507224829 | 16 | 255 | 3.2 | 14.5 | 0.00 | 0.30 | 0.05 | 36 | 1007.1 |
| 20260507223321 | 15 | 280 | 1.6 | 9.7 | 0.00 | 0.30 | 0.05 | 35 | 1006.8 |
| 20260507221832 | 16 | 77 | 3.2 | 11.3 | 0.00 | 0.30 | 0.05 | 34 | 1006.8 |
| 20260507220324 | 16 | 238 | 6.4 | 19.3 | 0.00 | 0.30 | 0.05 | 34 | 1006.7 |
| 20260507214817 | 17 | 245 | 6.4 | 14.5 | 0.00 | 0.38 | 0.05 | 33 | 1006.5 |
| 20260507213332 | 17 | 253 | 4.8 | 9.7 | 0.00 | 0.38 | 0.05 | 34 | 1006.5 |
| 20260507211826 | 17 | 262 | 4.8 | 19.3 | 0.00 | 0.38 | 0.05 | 33 | 1006.5 |
| 20260507210330 | 17 | 271 | 8.0 | 19.3 | 0.00 | 0.38 | 0.05 | 34 | 1006.6 |
| 20260507204823 | 17 | 302 | 6.4 | 16.1 | 0.00 | 0.48 | 0.05 | 35 | 1006.5 |
| 20260507203329 | 17 | 228 | 4.8 | 14.5 | 0.00 | 0.48 | 0.05 | 34 | 1006.5 |
| 20260507201823 | 17 | 262 | 4.8 | 12.9 | 0.00 | 0.48 | 0.05 | 34 | 1006.3 |
| 20260507200328 | 17 | 283 | 6.4 | 14.5 | 0.00 | 0.48 | 0.05 | 35 | 1006.3 |
| 20260507194820 | 17 | 319 | 3.2 | 9.7 | 0.00 | 0.51 | 0.05 | 37 | 1006.4 |
| 20260507193326 | 17 | 314 | 3.2 | 16.1 | 0.00 | 0.51 | 0.05 | 37 | 1006.6 |
| 20260507191821 | 17 | 253 | 4.8 | 19.3 | 0.00 | 0.51 | 0.05 | 36 | 1006.7 |
| 20260507190326 | 17 | 317 | 3.2 | 11.3 | 0.00 | 0.51 | 0.05 | 36 | 1006.8 |
| 20260507184821 | 17 | 285 | 9.7 | 22.5 | 0.00 | 0.61 | 0.05 | 35 | 1006.8 |
| 20260507183329 | 16 | 4 | 6.4 | 16.1 | 0.00 | 0.61 | 0.05 | 34 | 1007.1 |
| 20260507181847 | 16 | 356 | 4.8 | 11.3 | 0.00 | 0.61 | 0.05 | 34 | 1007.1 |
| 20260507180320 | 16 | 248 | 4.8 | 16.1 | 0.00 | 0.61 | 0.05 | 37 | 1007.4 |
| 20260507174824 | 16 | 6 | 6.4 | 24.1 | 0.00 | 0.61 | 0.05 | 34 | 1007.4 |
| 20260507173318 | 16 | 246 | 3.2 | 20.9 | 0.00 | 0.61 | 0.05 | 35 | 1007.2 |
| 20260507171823 | 16 | 332 | 4.8 | 16.1 | 0.00 | 0.61 | 0.05 | 38 | 1007.3 |
| 20260507170329 | 16 | 332 | 6.4 | 16.1 | 0.00 | 0.61 | 0.05 | 37 | 1007.4 |
| 20260507164846 | 16 | 304 | 6.4 | 20.9 | 0.00 | 0.61 | 0.05 | 37 | 1007.8 |
| 20260507163339 | 16 | 288 | 3.2 | 12.9 | 0.00 | 0.61 | 0.05 | 40 | 1008.0 |
| 20260507161828 | 16 | 325 | 4.8 | 17.7 | 0.00 | 0.61 | 0.05 | 42 | 1008.1 |
| 20260507160321 | 15 | 281 | 3.2 | 11.3 | 0.00 | 0.61 | 0.05 | 47 | 1008.1 |
| 20260507154833 | 15 | 327 | 6.4 | 17.7 | 0.00 | 0.61 | 0.05 | 51 | 1008.2 |